Location: ?????????
(53.2086°N, 54.0693°E)
Time: 05:30:11
(UTC+00:00)

NOSS 3-1 (A) - Pass Details

Date: 08 December 2019
Orbit: 766 x 1446 km, 63.4° (Epoch: 19 January)

Event Time Altitude Azimuth Distance (km) Brightness Sun altitude
Rises 14:04:01 0° 296° (WNW) 3,649 7.3 -16.4°
Reaches altitude 10° 14:06:37 10° 305° (NW) 2,796 6.4 -16.7°
Maximum altitude 14:12:51 39° 14° (NNE) 1,633 4.4 -17.6°
Enters shadow 14:16:22 26° 62° (ENE) 2,177 4.7 -18.1°
